• In Hungary
  • List of Countries
  • For 7 days
  • Water Temperature
  • Satellite Maps
  • Weather Map
  • News
  • Weather Widgets
  • user-avatar
    Login

    Hourly Weather Perlevo

    Today, 21 July, Saturday

    Time Temperature Precipitation Wind Pressure Humidity
    00:00 +18°C° 0 mm 2 mps 731 mmHg 98%
    01:00 +18°C° 0 mm 2 mps 731 mmHg 98%
    02:00 +18°C° 0 mm 2 mps 731 mmHg 98%
    03:00 +18°C° 0 mm 2 mps 731 mmHg 98%
    04:00 +18°C° 0 mm 2 mps 731 mmHg 98%
    05:00 +18°C° 0 mm 2 mps 732 mmHg 98%
    06:00 +19°C° 0 mm 2 mps 732 mmHg 95%
    07:00 +21°C° 0 mm 2 mps 732 mmHg 92%
    08:00 +23°C° 0 mm 2 mps 732 mmHg 89%
    09:00 +24°C° 0.4 mm 2 mps 732 mmHg 83%
    10:00 +26°C° 0.4 mm 2 mps 732 mmHg 77%
    11:00 +27°C° 0.4 mm 2 mps 733 mmHg 70%
    12:00 +27°C° 0.7 mm 3 mps 733 mmHg 73%
    13:00 +26°C° 0.7 mm 3 mps 733 mmHg 75%
    14:00 +26°C° 0.7 mm 3 mps 733 mmHg 78%
    15:00 +26°C° 0.2 mm 3 mps 733 mmHg 79%
    16:00 +25°C° 0.2 mm 3 mps 732 mmHg 81%
    17:00 +24°C° 0.2 mm 3 mps 732 mmHg 83%
    18:00 +23°C° 0.1 mm 2 mps 732 mmHg 87%
    19:00 +23°C° 0.1 mm 2 mps 732 mmHg 91%
    20:00 +21°C° 0.1 mm 2 mps 733 mmHg 94%
    21:00 +20°C° 0.2 mm 2 mps 733 mmHg 95%
    22:00 +20°C° 0.2 mm 2 mps 733 mmHg 96%
    23:00 +19°C° 0.2 mm 2 mps 733 mmHg 97%

    Tomorrow, 22 July, Sunday

    Time Temperature Precipitation Wind Pressure Humidity
    00:00 +19°C° 0.3 mm 2 mps 733 mmHg 97%
    01:00 +19°C° 0.3 mm 2 mps 733 mmHg 98%
    02:00 +19°C° 0.3 mm 2 mps 733 mmHg 98%
    03:00 +19°C° 0 mm 3 mps 733 mmHg 98%
    04:00 +19°C° 0 mm 3 mps 733 mmHg 98%
    05:00 +19°C° 0 mm 3 mps 733 mmHg 98%
    06:00 +19°C° 0.1 mm 3 mps 733 mmHg 97%
    07:00 +19°C° 0.1 mm 3 mps 733 mmHg 96%
    08:00 +19°C° 0.1 mm 3 mps 734 mmHg 96%
    09:00 +19°C° 0 mm 3 mps 734 mmHg 95%
    10:00 +19°C° 0 mm 3 mps 734 mmHg 93%
    11:00 +19°C° 0 mm 3 mps 734 mmHg 92%
    12:00 +20°C° 0.1 mm 3 mps 734 mmHg 89%
    13:00 +21°C° 0.1 mm 3 mps 734 mmHg 86%
    14:00 +22°C° 0.1 mm 3 mps 734 mmHg 83%
    15:00 +22°C° 0.1 mm 3 mps 734 mmHg 84%
    16:00 +22°C° 0.1 mm 3 mps 734 mmHg 85%
    17:00 +22°C° 0.1 mm 3 mps 734 mmHg 87%
    18:00 +21°C° 0 mm 3 mps 734 mmHg 89%
    19:00 +20°C° 0 mm 3 mps 734 mmHg 92%
    20:00 +19°C° 0 mm 3 mps 734 mmHg 95%
    21:00 +19°C° 0 mm 3 mps 734 mmHg 95%
    22:00 +18°C° 0 mm 2 mps 734 mmHg 96%
    23:00 +17°C° 0 mm 2 mps 734 mmHg 97%

    Day after tomorrow, 23 July, Monday

    Time Temperature Precipitation Wind Pressure Humidity
    00:00 +17°C° 0 mm 2 mps 735 mmHg 98%
    01:00 +17°C° 0 mm 2 mps 735 mmHg 98%
    02:00 +16°C° 0 mm 2 mps 735 mmHg 98%
    03:00 +16°C° 0 mm 2 mps 735 mmHg 98%
    04:00 +17°C° 0 mm 2 mps 735 mmHg 98%
    05:00 +17°C° 0 mm 3 mps 735 mmHg 97%
    06:00 +17°C° 0 mm 3 mps 735 mmHg 96%
    07:00 +18°C° 0 mm 3 mps 735 mmHg 94%
    08:00 +18°C° 0 mm 4 mps 735 mmHg 92%
    09:00 +18°C° 0.1 mm 4 mps 735 mmHg 91%
    10:00 +18°C° 0.1 mm 3 mps 735 mmHg 90%
    11:00 +18°C° 0.1 mm 3 mps 735 mmHg 89%
    12:00 +19°C° 0.1 mm 3 mps 735 mmHg 87%
    13:00 +19°C° 0.1 mm 3 mps 735 mmHg 84%
    14:00 +20°C° 0.1 mm 3 mps 735 mmHg 81%
    15:00 +20°C° 0.1 mm 3 mps 735 mmHg 81%
    16:00 +21°C° 0.1 mm 3 mps 735 mmHg 81%
    17:00 +21°C° 0.1 mm 3 mps 735 mmHg 81%
    18:00 +20°C° 0.1 mm 3 mps 735 mmHg 85%
    19:00 +19°C° 0.1 mm 3 mps 735 mmHg 89%
    20:00 +17°C° 0.1 mm 3 mps 735 mmHg 94%
    21:00 +17°C° 0 mm 3 mps 735 mmHg 94%
    22:00 +17°C° 0 mm 3 mps 735 mmHg 95%
    23:00 +17°C° 0 mm 3 mps 735 mmHg 95%

    24 July, Tuesday

    Time Temperature Precipitation Wind Pressure Humidity
    00:00 +16°C° 0 mm 3 mps 735 mmHg 96%
    01:00 +16°C° 0 mm 3 mps 735 mmHg 96%
    02:00 +16°C° 0 mm 2 mps 735 mmHg 96%
    03:00 +16°C° 0.1 mm 2 mps 735 mmHg 96%
    04:00 +16°C° 0.1 mm 2 mps 735 mmHg 96%
    05:00 +16°C° 0.1 mm 2 mps 735 mmHg 96%
    06:00 +16°C° 0.2 mm 3 mps 735 mmHg 96%
    07:00 +17°C° 0.2 mm 3 mps 735 mmHg 95%
    08:00 +17°C° 0.2 mm 3 mps 735 mmHg 94%
    09:00 +17°C° 0.4 mm 3 mps 735 mmHg 94%
    10:00 +18°C° 0.4 mm 3 mps 736 mmHg 94%
    11:00 +18°C° 0.4 mm 3 mps 736 mmHg 94%
    12:00 +19°C° 0.2 mm 3 mps 736 mmHg 93%
    13:00 +19°C° 0.2 mm 3 mps 736 mmHg 93%
    14:00 +19°C° 0.2 mm 3 mps 736 mmHg 92%
    15:00 +19°C° 0.1 mm 3 mps 736 mmHg 92%
    16:00 +20°C° 0.1 mm 2 mps 736 mmHg 92%
    17:00 +20°C° 0.1 mm 2 mps 736 mmHg 92%
    18:00 +20°C° 0 mm 2 mps 736 mmHg 94%
    19:00 +19°C° 0 mm 2 mps 736 mmHg 95%
    20:00 +19°C° 0 mm 2 mps 736 mmHg 96%
    21:00 +19°C° 0 mm 2 mps 736 mmHg 96%
    22:00 +19°C° 0 mm 2 mps 736 mmHg 97%
    23:00 +18°C° 0 mm 2 mps 736 mmHg 97%

    25 July, Wednesday

    Time Temperature Precipitation Wind Pressure Humidity
    00:00 +18°C° 0 mm 2 mps 736 mmHg 97%
    01:00 +18°C° 0 mm 2 mps 736 mmHg 98%
    02:00 +18°C° 0 mm 2 mps 736 mmHg 98%
    03:00 +18°C° 0.4 mm 2 mps 736 mmHg 98%
    04:00 +18°C° 0.4 mm 3 mps 736 mmHg 98%
    05:00 +19°C° 0.4 mm 3 mps 736 mmHg 98%
    06:00 +19°C° 0.1 mm 3 mps 736 mmHg 97%
    07:00 +19°C° 0.1 mm 4 mps 737 mmHg 95%
    08:00 +20°C° 0.1 mm 4 mps 737 mmHg 93%
    09:00 +20°C° 0.1 mm 4 mps 737 mmHg 89%
    10:00 +20°C° 0.1 mm 4 mps 737 mmHg 85%
    11:00 +20°C° 0.1 mm 4 mps 738 mmHg 81%
    12:00 +20°C° 0.3 mm 4 mps 737 mmHg 83%
    13:00 +20°C° 0.3 mm 4 mps 737 mmHg 85%
    14:00 +20°C° 0.3 mm 4 mps 737 mmHg 87%
    15:00 +20°C° 0.3 mm 4 mps 737 mmHg 88%
    16:00 +19°C° 0.3 mm 4 mps 737 mmHg 89%
    17:00 +19°C° 0.3 mm 4 mps 737 mmHg 91%
    18:00 +19°C° 0.1 mm 4 mps 737 mmHg 91%
    19:00 +19°C° 0.1 mm 3 mps 737 mmHg 92%
    20:00 +18°C° 0.1 mm 3 mps 737 mmHg 93%
    21:00 +18°C° 0 mm 3 mps 737 mmHg 93%
    22:00 +18°C° 0 mm 3 mps 738 mmHg 94%
    23:00 +17°C° 0 mm 3 mps 738 mmHg 94%

    26 July, Thursday

    Time Temperature Precipitation Wind Pressure Humidity
    00:00 +17°C° 0 mm 3 mps 738 mmHg 95%
    01:00 +16°C° 0 mm 3 mps 738 mmHg 96%
    02:00 +16°C° 0 mm 3 mps 738 mmHg 97%
    03:00 +16°C° 0 mm 3 mps 738 mmHg 97%
    04:00 +17°C° 0 mm 3 mps 738 mmHg 97%
    05:00 +17°C° 0 mm 3 mps 739 mmHg 97%
    06:00 +17°C° 0 mm 3 mps 739 mmHg 96%
    07:00 +18°C° 0 mm 3 mps 739 mmHg 95%
    08:00 +18°C° 0 mm 3 mps 740 mmHg 95%
    09:00 +19°C° 0 mm 3 mps 740 mmHg 91%
    10:00 +21°C° 0 mm 3 mps 740 mmHg 88%
    11:00 +22°C° 0 mm 3 mps 740 mmHg 84%
    12:00 +24°C° 0 mm 3 mps 740 mmHg 78%
    13:00 +26°C° 0 mm 3 mps 740 mmHg 71%
    14:00 +28°C° 0 mm 3 mps 740 mmHg 64%
    15:00 +28°C° 0.3 mm 3 mps 740 mmHg 68%
    16:00 +27°C° 0.3 mm 3 mps 740 mmHg 72%
    17:00 +27°C° 0.3 mm 3 mps 740 mmHg 76%
    18:00 +25°C° 0.1 mm 2 mps 740 mmHg 81%
    19:00 +24°C° 0.1 mm 2 mps 740 mmHg 87%
    20:00 +21°C° 0.1 mm 2 mps 740 mmHg 92%
    21:00 +21°C° 0 mm 2 mps 740 mmHg 93%
    22:00 +20°C° 0 mm 2 mps 741 mmHg 94%
    23:00 +19°C° 0 mm 2 mps 741 mmHg 95%
    Show more